EW8108 Weather Reports


time (UTC)temp
C
wind
direction
speed
KPH
gust
KPH
rain 1hr
cm
rain 24hr
cm
rain mn
cm
humidity
%
barometer
mb
20260504182836 25 217 0.0 9.7 0.00 0.00 0.00 59 973.8
20260504180703 25 227 0.0 9.7 0.00 0.00 0.00 60 974.3
20260504175653 25 187 0.0 11.3 0.00 0.00 0.00 60 974.3
20260504174620 24 237 0.0 11.3 0.00 0.00 0.00 61 974.4
20260504173631 23 264 0.0 9.7 0.00 0.00 0.00 62 974.5
20260504172655 22 237 0.0 9.7 0.00 0.00 0.00 62 974.8
20260504171707 22 239 0.0 9.7 0.00 0.00 0.00 62 975.1
20260504170643 22 260 0.0 9.7 0.00 0.00 0.00 62 975.4
20260504150438 20 246 0.0 11.3 0.00 0.00 0.00 59 975.9
20260504140326 18 179 0.0 8.0 0.00 0.00 0.00 50 975.9
20260504130157 16 232 0.0 1.6 0.00 0.00 0.00 6 975.9
20260504081633 15 240 0.0 0.0 0.00 0.00 0.00 49 975.9
20260504050644 17 238 0.0 4.8 0.00 0.00 0.00 64 978.1
20260504044449 17 215 0.0 0.0 0.00 0.00 0.00 64 978.2
20260504043420 17 215 0.0 0.0 0.00 0.00 0.00 64 978.3
20260504041210 16 215 0.0 0.0 0.00 0.00 0.00 63 978.3
20260504040142 16 215 0.0 0.0 0.00 0.00 0.00 63 978.4
20260504033938 16 215 0.0 0.0 0.00 0.00 0.00 64 978.2
20260504032943 16 215 0.0 0.0 0.00 0.00 0.00 64 978.2
20260504031923 16 215 0.0 0.0 0.00 0.00 0.00 64 978.2
20260504030925 17 215 0.0 0.0 0.00 0.00 0.00 63 978.2
20260504025937 17 215 0.0 0.0 0.00 0.00 0.00 63 978.4
20260504024949 17 215 0.0 0.0 0.00 0.00 0.00 63 978.3
20260504024006 17 215 0.0 0.0 0.00 0.00 0.00 63 978.4
20260504023005 17 215 0.0 0.0 0.00 0.00 0.00 62 978.2
20260504020918 18 215 0.0 0.0 0.00 0.00 0.00 61 978.2
20260504012503 20 215 0.0 0.0 0.00 0.00 0.00 55 977.7
20260504010302 21 215 0.0 0.0 0.00 0.00 0.00 51 977.7
20260504005251 21 215 0.0 0.0 0.00 0.00 0.00 49 977.7
20260504004228 22 215 0.0 0.0 0.00 0.00 0.00 47 977.6
20260504002052 23 215 0.0 0.0 0.00 0.00 0.00 45 977.8
20260504001019 23 209 0.0 0.0 0.00 0.00 0.00 44 977.9
20260504000034 23 209 0.0 0.0 0.00 0.00 0.00 42 978.1
20260503235036 23 207 0.0 0.0 0.00 0.00 0.00 42 978.3
20260503234045 24 204 0.0 0.0 0.00 0.00 0.00 43 978.2
20260503231918 25 257 0.0 0.0 0.00 0.00 0.00 40 978.4
20260503225800 25 286 0.0 0.0 0.00 0.00 0.00 37 978.1
20260503224754 26 291 0.0 4.8 0.00 0.00 0.00 36 978.4
20260503223817 27 219 0.0 1.6 0.00 0.00 0.00 36 978.3
20260503222758 27 275 0.0 6.4 0.00 0.00 0.00 35 978.7
20260503221814 27 278 0.0 1.6 0.00 0.00 0.00 36 978.7
20260503220836 27 246 0.0 1.6 0.00 0.00 0.00 34 978.8
20260503215846 27 211 0.0 9.7 0.00 0.00 0.00 36 978.9
20260503214858 27 235 0.0 0.0 0.00 0.00 0.00 37 979.0
20260503212735 27 272 0.0 1.6 0.00 0.00 0.00 38 979.5
20260503211738 27 275 0.0 4.8 0.00 0.00 0.00 37 979.5
20260503210723 27 202 0.0 3.2 0.00 0.00 0.00 35 979.6
20260503205742 27 263 0.0 6.4 0.00 0.00 0.00 35 979.9
20260503204741 27 253 0.0 4.8 0.00 0.00 0.00 38 980.1
20260503203805 27 144 0.0 6.4 0.00 0.00 0.00 37 980.1
20260503201611 27 296 0.0 1.6 0.00 0.00 0.00 35 980.7
20260503195420 27 254 0.0 3.2 0.00 0.00 0.00 33 980.9
20260503194437 27 263 0.0 1.6 0.00 0.00 0.00 36 981.0
20260503193448 27 250 0.0 4.8 0.00 0.00 0.00 34 981.0
20260503192415 27 261 0.0 1.6 0.00 0.00 0.00 36 981.2
20260503191440 27 252 0.0 6.4 0.00 0.00 0.00 35 981.2
20260503185315 27 252 0.0 0.0 0.00 0.00 0.00 37 981.6
20260503184333 27 252 0.0 4.8 0.00 0.00 0.00 35 981.8